Погода в Херсоне

Погода в Херсоне : погода сейчас, прогноз погоды и архив. Всё, что Вы хотите узнать о погоде в Херсоне!

Хотите узнать прогноз погоды в Херсоне? Тогда Вам сюда: Погода в Херсоне

Поиск расширенной информации на нашем сайте:

Полезная информация:

Другие новости

Новости СМИ2

Главная страница сайта

Новости сайта

03.07.2017

Напоминаем, что на нашем специализированном сайте Метеоцентр.Азия вы можете получить высокодетализированные автоматические прогнозы погоды по пунктам России, СНГ и мира в авиационном формате (включающие направление и скорость ветра, видимость, явления погоды, количество и форму облачности, нижнюю и верхнюю границу облачности).

Рекомендуем:

Погода в Херсоне - сегодня

Время (UTC), дата Ветер
(°,м/с) 
Видим.   Явления Облачность Т
(°С)
Тd
(°С)
f(%) Тe
(°С)
Pmin
(гПа)
dP
(гПа)
Po
(мм)
O2
(г/м3)
Тmin Tmax R s Состояние
почвы
03 22.05.19 120 (ЮВ) 4000 м  дымка{ливн. осадки}  10/10 600 м кучево-дожд. 
[Cb calv]
+16 +15.1 94 +26  1010.6  -0.7  753  283           
06 22.05.19 250 (З) 10 км  {ливн. осадки}  9/8 600 м кучево-дожд., средняя 
[Cb calv|Ac cuf]
+16.2 +13.2 82 +23  1010.2  -0.4  753  284  +15.7    0.1     
09 22.05.19 210 (ЮЗ) 10 км  слаб. ливневой дождь  10/10 600 м кучево-дожд. 
[Cb cap]
+16.3 +14.6 90 +25  1010.7  0.5  753  283           
12 22.05.19 250 (З) 10 км  {ливн. осадки}  6/4 600 м средняя, верхняя 
[Cu med, cong|Ac cuf|Ci fib]
+21.6 +11.8 54 +25  1009.9  -0.6  753  279         
15 22.05.19 290 (З) 10 км  гроза, ливневой дождь  9/9 600 м кучево-дожд. 
[Cb calv]
+17.4 +10.9 66 +20  1010.5  0.5  753  283           
18 22.05.19 180 (Ю) 4000 м  дымка{гроза, ливн. осадки}  8/6 600 м кучево-дожд., средняя 
[Cb calv|Ac cuf]
+15 +13.6 91 +21  1010.3  -0.3  753  285    +22.6     
21 22.05.19 150 (ЮВ) 4000 м  дымка{ливн. осадки}  4/4 2000 м средняя 
[Ac lent]
+14.1 +12.4 89 +19  1009.6  -0.7  752  286           
00 23.05.19 050 (СВ) 4000 м  дымка{ливн. осадки}  9/8 600 м кучево-дожд., средняя 
[Cb calv|Ac und]
+14.7 +14 96 +23  1009  -0.6  752  285      0.0     
03 23.05.19 150 (ЮВ) 4000 м  дымка  8/5 600 м средняя 
[Sc|Ac lent]
+14.5 +13.8 96 +22  1008.4  -0.6  752  285           
06 23.05.19 340 (С) 4000 м  дымка  9/8 600 м кучево-дожд., средняя 
[Cb calv|Ac lent]
+18.1 +16.1 88 +31  1008.8  0.5  752  281  +13.9    0.0     
09 23.05.19 260 (З) 10 км    5/4 600 м средняя 
[Cu med, cong|Ac lent]
+23.4 +13.2 53 +29  1008.4  -0.3  752  276           
12 23.05.19 300 (СЗ) 20000 м    9/8 600 м кучево-дожд., средняя 
[Cb calv|Ac und]
+23.6 +9.9 42 +25  1008.4  752  277           
15 23.05.19 270 (З) 20000 м  {ливн. осадки}  6/5 600 м кучево-дожд., средняя 
[Cb calv|Ac und]
+25 +10.7 41 +27  1007.8  -0.6  751  275           
18 23.05.19 220 (ЮЗ) 10 км  {ливн. осадки}  4/3 600 м средняя 
[Sc|Ac und]
+18.5 +14 75 +27  1008.9  752  281    +25.5       
21 23.05.19 180 (Ю) 10 км    8/8 2000 м средняя 
[Ac lent]
+17.8 +14.5 81 +27  1009.1  0.2  752  282           
00 24.05.19 100 (В) 4000 м  дымка  1/1 2000 м средняя 
[Ac und]
+15 +13.8 93 +23  1008.8  -0.4  752  284           
03 24.05.19 100 (В) 0500 м  туман  3/3 600 м 
[Sc]
+13 +13 100 +19  1008.7  -0.1  752  287           
06 24.05.19 080 (В) 10 км  {туман}  ясно 
+20.7 +17.6 82 +34  1008.4  -0.1  752  278  +12.8         
09 24.05.19 080 (В) 20000 м  гроза без осадков  8/6 600 м кучево-дожд., средняя 
[Cb cap|Ac cuf]
+24.2 +14.6 55 +32  1008.1  -0.3  751  275           
12 24.05.19 260 (З) 20000 м  слаб. ливневой дождь, в посл. час гроза  9/6 600 м кучево-дожд., средняя, верхняя 
[Cb calv|Ac cuf|Ci]
+19.1 +14.3 74 +28  1007.8  -0.4  751  280      0.8     
15 24.05.19 350 (С) 20000 м    8/3 600 м кучево-дожд., средняя 
[Cb calv|Ac cuf]
+23.2 +13.2 53 +29  1006.8  -0.9  750  276           
18 24.05.19 290 (З) 4000 м  гроза без осадков{ливн. осадки}  9/8 600 м кучево-дожд., средняя 
[Cb calv|Ac cuf]
+17.7 +15.5 87 +29  1007.6  0.7  751  281    +25.1  15     
21 24.05.19 120 (ЮВ) 4000 м  гроза без осадков  9/6 600 м кучево-дожд., средняя 
[Cb cap|Ac cuf]
+16.7 +15 90 +27  1007.9  0.3  751  282           
00 25.05.19 080 (В) 4000 м  слаб. ливневой дождь, в посл. час гроза  10/9 600 м кучево-дожд., средняя 
[Cb cap|Ac cuf]
+14.7 +13.8 94 +16  1007.5  -0.5             
03 25.05.19 тихо ()   2000 м  дымка{ливн. осадки}  9/8 300 м кучево-дожд., средняя 
[Cb calv|Ac cuf]
+14 +13.3 96 +20  1006.7  -0.8  750  285           
Время (UTC), дата Ветер
(°,м/с) 
Видим.   Явления Облачность Т
(°С)
Тd
(°С)
f(%) Тe
(°С)
Pmin
(гПа)
dP
(гПа)
Po
(мм)
O2
(г/м3)
Тmin Tmax R s Состояние
почвы

Для получения пояснительной информации подведите курсор к названию столбца.

ПОГОДА в Херсоне - архив

Всё, что Вы хотите узнать о погоде в Херсоне - удобно и подробно!

Выберите нужную дату (начиная с 1 января 2018* года) и нажмите кнопку "Найти".
Будут отображены архивные сводки погоды по пункту Херсон, начиная с указанной даты.


Отображать данные в формате CSV (для использования в таблицах Excel)


Внимание! Наш архив погоды предназначен исключительно для личного некоммерческого использования в познавательных целях. Если Вам необходимы официальные справки о состоянии погоды (для производственных, юридических, коммерческих и т.п. целей), обращайтесь в органы Росгидромета.

*Примечание: данная дата относится к архиву по метеостанциям СССР (Россия, СНГ, Балтия).
Архив по метеостанциям Зарубежной Европы и Азии (кроме Китая) хранится 10 дней, по другим регионам земного шара (Китай, Африка, Америка, Австралия, Океания) - 1 день.

Херсон - район местоположения метеостанции


Название, широта, долгота, высота метеостанции:
Херсон 46.6°ш. 32.6°д. 54 м над ур. моря [Украина]

Дополнительная информация

В oтличие oт бoльшинства пoгoдных сайтoв мы публикуем пoдрoбную метеoинфoрмацию в детальнoм прoфессиoнальнoм фoрмате.

Характеристики температуры и влажнoсти вoздуха измеряются на высoте 2 м в тени вдали oт зданий и деревьев.
Скoрoсть ветра измеряется на высoте 10 м (на урoвне рoста челoвека скoрoсть ветра ниже в 1.5-2 раза). Если метеoстанция нахoдится в гoрoде или в лесу, тo скoрoсть ветра занижена на 2-4 м/с пo сравнению с oткрытым местoм. Скoрoсть ветра над акватoриями крупных рек и oзёр, а также на вершинах хoлмoв на 2-5 м/с выше, чем в oбычных услoвиях.
Атмoсфернoе давление в разных тoчках местнoсти мoжет значительнo oтличаться oт давления на метеoстанции, в зависимoсти oт услoвий рельефа (при пoдъёме на 10 м давление пoнижается примернo на 1 мм рт.ст.).